Tracking 31027 objects as of 19-Jul-2025
HD Live streaming from Space Station
objects crossing your sky now

EKRAN 2 DEB

Track EKRAN 2 DEB now!


NORAD ID: 29014
Int'l Code: 1977-092K
Perigee: 35,747.7 km
Apogee: 35,906.9 km
Inclination: 5.0 °
Period: 1,437.8 minutes
Semi major axis: 42198 km
RCS: 1 m2 (large)
Launch date: September 20, 1977
Source: Commonwealth of Independent States (former USSR) (CIS)
Launch site: TYURATAM MISSILE AND SPACE COMPLEX (TTMTR)

Note: This is SATELLITE DEBRIS
Your satellite tracking list
DELTA 1 DEB
Track 1 satellite(s)




NASA's NSSDC Master Catalog

Two Line Element Set (TLE):
1 29014U 77092K   25199.12494689 -.00000147  00000-0  00000-0 0  9993
2 29014   4.9931 278.7459 0018868 335.5594  69.0333  1.00152236 43934
Source of the keplerian elements: AFSPC